This is the latest recevied weather packets stored in our database for station/object DX2OHR-2. If no packets are shown the sender has not sent any weather packets the latest 10 day(s).
| Time | Temp. | Humidity | Pressure | Rain* | Wind** | Luminosity | Snow |
|---|---|---|---|---|---|---|---|
| 1787394904 | 16.11° C | 71% | 1013.5 hPa | 0 mm | - | 138 W/m² | - |
| 1787394605 | 17.22° C | 68% | 1013.6 hPa | 0 mm | - | 179 W/m² | - |
| 1787394310 | 16.67° C | 68% | 1013.3 hPa | 0 mm | - | 267 W/m² | - |
| 1787394004 | 17.22° C | 63% | 1013.3 hPa | 0 mm | - | 606 W/m² | - |
| 1787393704 | 16.11° C | 68% | 1013.3 hPa | 0 mm | - | 763 W/m² | - |
| 1787393404 | 16.11° C | 70% | 1013.2 hPa | 0 mm | - | 703 W/m² | - |
| 1787393105 | 16.11° C | 72% | 1013.2 hPa | 0 mm | - | 223 W/m² | - |
| 1787392806 | 16.11° C | 71% | 1013.5 hPa | 0 mm | - | 517 W/m² | - |
| 1787392504 | 15.56° C | 72% | 1013.3 hPa | 0 mm | - | 553 W/m² | - |
| 1787392204 | 15.56° C | 73% | 1013 hPa | 0 mm | - | 430 W/m² | - |
| 1787391904 | 16.67° C | 70% | 1013 hPa | 0 mm | - | 334 W/m² | - |
| 1787391604 | 16.11° C | 70% | 1012.8 hPa | 0 mm | - | 428 W/m² | - |
| 1787391304 | 15.56° C | 73% | 1013 hPa | 0 mm | - | 796 W/m² | - |
| 1787391004 | 15.56° C | 71% | 1012.8 hPa | 0 mm | - | 595 W/m² | - |
| 1787390704 | 16.11° C | 73% | 1012.8 hPa | 0 mm | - | 362 W/m² | - |
| 1787390404 | 15° C | 77% | 1012.8 hPa | 0 mm | - | 651 W/m² | - |
| 1787390103 | 15° C | 77% | 1012.9 hPa | 0 mm | - | 257 W/m² | - |
| 1787389806 | 15.56° C | 81% | 1012.9 hPa | 0 mm | - | 285 W/m² | - |
| 1787389504 | 15° C | 80% | 1013 hPa | 0 mm | - | 227 W/m² | - |
| 1787389206 | 13.89° C | 80% | 1012.6 hPa | 0 mm | - | 664 W/m² | - |
| 1787388903 | 14.44° C | 81% | 1012.8 hPa | 0 mm | - | 153 W/m² | - |
| 1787388604 | 15° C | 82% | 1012.6 hPa | 0 mm | - | 127 W/m² | - |
| 1787388304 | 14.44° C | 83% | 1012.7 hPa | 0 mm | - | 353 W/m² | - |
| 1787388004 | 14.44° C | 85% | 1012.6 hPa | 0 mm | - | 212 W/m² | - |
| 1787387703 | 13.33° C | 84% | 1012.5 hPa | 0 mm | - | 254 W/m² | - |
* Rain latest hour (hover to see other rain measurements)
** Current wind speed in m/s (hover to see current wind gust speed)